Weather in Verden

Germany     52°55′29″N   9°13′40″E
temp.,
°C
wind,
m/s
gust,
m/s
humid.,
%
clouds,
%
prec.,
mm/h
press.,
hPa
HPBL,
m
27 october, wed
wed2723:00+12sw71483100 0.1 1019724
02:00+12sw7148387 0.1 1020691
05:00+12sw61384100 0.0 1019580
08:00+13sw71281100 0.0 1019701
11:00+14sw71382100 0.0 1020811
14:00+15sw71178100 0.0 1020956
17:00+15sw6117698 0.0 1020890
20:00+11ssw3991100 0.0 1020182
28 october, thu
thu2823:00+10ssw4109338 0.0 1021203
02:00+9ssw4109423 0.0 1020191
05:00+9ssw38945 0.0 1020136
08:00+8s37945 0.0 1019124
11:00+13s47770 0.0 1019247
14:00+16s475823 0.0 1017549
17:00+14sse48674 0.0 1015206
20:00+10sse410760 0.0 1015170
29 october, fri
fri2923:00+8sse47830 0.0 1014112
02:00+7s37855 0.0 1013112
05:00+7sse478538 0.0 1012104
08:00+7sse47815 0.0 1011104
11:00+12sse510675 0.0 1011272
14:00+17s510548 0.0 1009645
17:00+15sse5106566 0.0 1009231
20:00+11sse4107499 0.0 1009165
30 october, sat
sat3023:00+10s41174100 0.0 1009210
02:00+11s41370100 0.0 1009264
05:00+11ssw5137199 0.0 1010377
08:00+9s41085100 0.0 1011244
11:00+13s5107596 0.0 1012538
14:00+16ssw696414 0.0 10111070
17:00+15s48705 0.0 1011209
20:00+12sse5138180 0.0 1010307
31 october, sun
sun3123:00+11sse4128330 0.0 1009238
02:00+10se4118312 0.0 1008206
04:00+11sse497099 0.0 1006181
07:00+11se41072100 0.2 1003199
10:00+13sse61262100 0.0 1001373
13:00+13s61474100 0.3 999652
16:00+14ssw71378100 0.1 996829
19:00+13ssw71588100 0.5 996843